Other Surface Observations
Issued by NWS

Home | Current Version | Previous Version | Text Only | Print | Product List | Glossary On
Versions: 1 2 3 4 5 6 7 8 9 10 11 12 13 14 15 16 17 18 19 20 21 22 23 24 25 26 27 28 29 30 31 32 33 34 35 36 37 38 39 40 41 42 43 44 45 46 47 48 49 50
000
SXUS52 KTAE 162118
OSOTAE
OSOTAE
North Florida/South Alabama/Southwest Georgia Weather Roundup
National Weather Service Tallahassee Florida
500 PM EDT TUE SEP 16 2014

Note: "fair" indicates few or no clouds below 12,000 feet with no
significant weather and/or obstructions to visibility.

!FLZ017-115-028-034-025-162200
...North Florida...

CITY           SKY/WX    TMP DP  RH WIND       PRES   REMARKS
TALLAHASSEE    CLOUDY    80  74  81 NW6       29.99R
APALACHICOLA   CLOUDY    83  73  72 W9        29.97F
PERRY          CLOUDY    81  72  74 W9        29.97S
CROSS CITY       N/A     81 N/A N/A SW9       29.96F
HOMERVILLE     FAIR      82  77  83 CALM      29.96R HX  91
JACKSONVILLE   TSTM      74  73  97 E8        29.95F FOG
$$

!FLZ112-006-005-002-011-162200
...Florida Panhandle...

CITY           SKY/WX    TMP DP  RH WIND       PRES   REMARKS
MARIANNA       CLOUDY    74  74 100 NE8       30.00R
BONIFAY        NOT AVBL
PANAMA CITY NW TSTM      79  75  87 SW3       29.97S FOG
TYNDALL AFB    LGT RAIN  81  73  78 W10       29.98S
TYND DRONE APT LGT RAIN  81  73  78 MISG      29.97S
DE FUNIAK SPR  FAIR      75  75  98 SW3       29.98F
EGLIN AFB      LGT RAIN  76  74  94 W3        29.97F
DESTIN         LGT RAIN  79  76  90 CALM      29.97F
HURLBURT       LGT RAIN  76  71  85 NW6       29.96F
CRESTVIEW      LGT RAIN  75  75 100 SW6       29.99F
PENSACOLA      LGT RAIN  75  75 100 W7        29.97F
$$

!ALZ063-066-162200
...South Alabama...

CITY           SKY/WX    TMP DP  RH WIND       PRES   REMARKS
DOTHAN         LGT RAIN  77  73  87 S9        30.02S
OZARK CAIRNS   CLOUDY    76  72  87 S13       29.99R
FT RUCKER HELI LGT RAIN  76  73  91 MISG      29.98S
RUCKER HELI 3  PTSUNNY   77  73  88 SE12      30.01S
RUCKER HELI 2  LGT RAIN  77  71  82 S8        29.99S
FLORALA APT    RAIN      73  72  94 SE7       30.02R FOG
ANDALUSIA      MOSUNNY   92  71  50 E6        29.95F HX  98
TROY           MOSUNNY   88  71  57 N8        29.97F HX  94
EUFALA         FAIR      85  74  69 CALM      29.95F HX  92
MOBILE         PTSUNNY   82  74  76 SW14      29.97F THUNDER
$$

!GAZ120>161-162200
...Southwest and South Central Georgia...

CITY           SKY/WX    TMP DP  RH WIND       PRES   REMARKS
THOMASVILLE      N/A     75  75 100 SW5       29.98F
BAINBRIDGE     TSTM      77  73  88 SE7       30.01S
MOODY AFB      CLOUDY    82  75  80 NW6       29.96S
VALDOSTA       CLOUDY    81  76  84 CALM      29.96S
MOULTRIE       CLOUDY    77  73  88 SW7       29.98S
BLAKELY        CLOUDY    81  77  89 SW6         N/A
ALBANY         CLOUDY    86  72  62 N3        29.98R HX  92
TIFTON         LGT RAIN  76  73  89 S3        29.97S
FITZGERALD     FAIR      86  71  59 N5        29.98R HX  91
CORDELE        FAIR      87  72  61 E5        29.97S HX  93
AMERICUS       FAIR      82  70  65 NE6       29.98S
$$

!GMZ750-755-770-775-162200
...Coastal and Buoy Obs...

STATION/POSITION TIME  TEMP    WIND        PRES    VSBY  WAVE
                       AIR SEA DIR/SP/G                  HT/PER
                 (UTC) (F)     (DEG/KT/KT) (MB)    (MI)  (FT/S)
KEATON BEACH     2100   81     280/ 12/ 16 1014.9F
CEDAR KEY        2054   80     270/ 13/ 18 1015.6F
C TOWER          2100   80     260/ 14/ 14 1015.2F
APALACHICOLA BUO 2100   81 85  310/ 10/ 12 1015.6F         5/ 5
PANAMA CITY BUOY 1954   81 85  210/ 12/ 17 1014.8          4/ 4
MOBILE BUOY      1952   80 85  240/ 10/ 12 1016.4          2/ 5
ORANGE BCH AL BU 2100   78 86  270/ 12/ 16 1015.4F         3/ 6
$$



USA.gov is the U.S. government's official web portal to all federal, state and local government web resources and services.